GW2993 Weather Reports


time (UTC)temp
C
wind
direction
speed
KPH
gust
KPH
rain 1hr
cm
rain 24hr
cm
rain mn
cm
humidity
%
barometer
mb
20260507051537 17 258 9.7 14.5 0.00 0.00 0.00 66 1016.6
20260507050038 17 258 8.0 12.9 0.00 0.00 0.00 66 1016.4
20260507044551 17 249 12.9 20.9 0.00 0.00 0.00 65 1016.2
20260507043038 18 261 12.9 19.3 0.00 0.00 0.00 64 1016.2
20260507041537 18 237 12.9 22.5 0.00 0.00 0.00 64 1016.2
20260507040038 18 236 14.5 24.1 0.00 0.00 0.00 63 1016.1
20260507034545 18 259 17.7 24.1 0.00 0.00 0.00 63 1015.9
20260507033037 19 257 12.9 24.1 0.00 0.00 0.00 62 1015.7
20260507031540 19 238 19.3 27.4 0.00 0.00 0.00 62 1015.5
20260507030038 19 235 19.3 27.4 0.00 0.00 0.00 60 1015.4
20260507024541 20 236 20.9 29.0 0.00 0.00 0.00 59 1015.3
20260507023037 20 226 16.1 25.7 0.00 0.00 0.00 58 1015.1
20260507021537 21 238 12.9 22.5 0.00 0.00 0.00 56 1015.0
20260507020048 21 246 14.5 24.1 0.00 0.00 0.00 55 1014.9
20260507014538 21 260 17.7 25.7 0.00 0.00 0.00 54 1014.7
20260507013040 22 238 19.3 27.4 0.00 0.00 0.00 53 1014.7
20260507011541 22 243 19.3 30.6 0.00 0.00 0.00 53 1014.4
20260507010042 22 193 19.3 32.2 0.00 0.00 0.00 52 1014.2
20260507004536 22 240 19.3 32.2 0.00 0.00 0.00 52 1014.2
20260507003037 22 221 25.7 40.2 0.00 0.00 0.00 52 1014.2
20260507001541 22 232 24.1 32.2 0.00 0.00 0.00 52 1014.2
20260507000038 22 260 24.1 33.8 0.00 0.00 0.00 51 1014.0
20260506234540 23 242 22.5 32.2 0.00 0.00 0.00 50 1013.8
20260506233037 23 266 17.7 37.0 0.00 0.00 0.00 47 1013.9
20260506231535 23 244 19.3 32.2 0.00 0.00 0.00 47 1014.1
20260506230035 23 251 16.1 29.0 0.00 0.00 0.00 47 1014.2
20260506224544 23 211 17.7 30.6 0.00 0.00 0.00 47 1014.3
20260506223037 23 232 16.1 29.0 0.00 0.00 0.00 47 1014.5
20260506221537 22 219 16.1 29.0 0.00 0.00 0.00 48 1014.7
20260506220038 22 247 17.7 29.0 0.00 0.00 0.00 47 1014.9
20260506214536 22 232 19.3 29.0 0.00 0.00 0.00 47 1015.0
20260506213042 22 243 16.1 25.7 0.00 0.00 0.00 48 1015.2
20260506211538 21 214 16.1 25.7 0.00 0.00 0.00 49 1015.4
20260506210040 21 217 12.9 24.1 0.00 0.00 0.00 50 1015.6
20260506204538 21 254 16.1 29.0 0.00 0.00 0.00 50 1015.7
20260506203037 21 232 4.8 20.9 0.00 0.00 0.00 51 1015.9
20260506201537 20 140 6.4 17.7 0.00 0.00 0.00 51 1016.1
20260506200038 20 198 6.4 17.7 0.00 0.00 0.00 51 1016.3
20260506194550 20 227 9.7 16.1 0.00 0.00 0.00 51 1016.5
20260506193037 19 268 9.7 17.7 0.00 0.00 0.00 52 1016.7
20260506191537 19 321 6.4 14.5 0.00 0.00 0.00 52 1016.9
20260506190037 18 132 4.8 11.3 0.00 0.00 0.00 53 1017.1
20260506184537 18 0 1.6 11.3 0.00 0.00 0.00 54 1017.4
20260506183038 17 240 6.4 11.3 0.00 0.00 0.00 55 1017.5
20260506181545 17 222 6.4 14.5 0.00 0.00 0.00 56 1017.5
20260506180042 17 115 3.2 4.8 0.00 0.00 0.00 57 1017.6
20260506174537 16 125 1.6 12.9 0.00 0.00 0.00 59 1017.6
20260506173037 16 115 4.8 12.9 0.00 0.00 0.00 61 1017.6
20260506171550 16 94 1.6 12.9 0.00 0.00 0.00 63 1017.7
20260506170040 15 0 3.2 12.9 0.00 0.00 0.00 64 1017.7
20260506164536 15 194 4.8 9.7 0.00 0.00 0.00 65 1017.6
20260506163042 15 139 0.0 12.9 0.00 0.00 0.00 68 1017.7
20260506161537 15 183 3.2 9.7 0.00 0.00 0.00 69 1017.8
20260506160037 14 0 0.0 9.7 0.00 0.00 0.00 71 1017.6
20260506154542 15 197 1.6 4.8 0.00 0.00 0.00 71 1017.6
20260506153038 13 0 0.0 4.8 0.00 0.00 0.00 75 1017.6
20260506151538 13 0 0.0 4.8 0.00 0.00 0.00 75 1017.6
20260506150038 13 0 0.0 4.8 0.00 0.00 0.00 76 1017.6
20260506144541 12 166 1.6 6.4 0.00 0.00 0.00 76 1017.6
20260506143036 12 115 3.2 6.4 0.00 0.00 0.00 78 1017.5
20260506141535 12 197 0.0 3.2 0.00 0.00 0.00 79 1017.5
20260506140054 11 198 1.6 4.8 0.00 0.00 0.00 79 1017.4
20260506134538 11 0 0.0 0.0 0.00 0.00 0.00 80 1017.3
20260506133045 10 0 1.6 4.8 0.00 0.00 0.00 81 1017.1
20260506131538 10 309 3.2 6.4 0.00 0.00 0.00 82 1017.0
20260506130037 11 0 0.0 0.0 0.00 0.00 0.00 82 1016.7
20260506124537 11 0 0.0 3.2 0.00 0.00 0.00 82 1016.7
20260506123034 10 309 1.6 3.2 0.00 0.00 0.00 82 1016.6
20260506121538 10 309 3.2 4.8 0.00 0.00 0.00 82 1016.5
20260506120039 10 309 3.2 4.8 0.00 0.00 0.00 82 1016.4
20260506114537 10 309 3.2 6.4 0.00 0.10 0.00 82 1016.4
20260506113046 11 309 3.2 6.4 0.00 0.10 0.00 81 1016.5
20260506111535 11 309 1.6 4.8 0.00 0.10 0.00 81 1016.4
20260506110039 11 309 1.6 3.2 0.00 0.10 0.00 81 1016.4
20260506104545 11 309 3.2 6.4 0.00 0.33 0.00 80 1016.4
20260506103041 11 347 4.8 6.4 0.00 0.33 0.00 80 1016.4
20260506101546 11 352 4.8 6.4 0.00 0.33 0.00 79 1016.3
20260506100037 11 326 4.8 6.4 0.00 0.33 0.00 79 1016.3
20260506094536 11 326 1.6 4.8 0.00 0.36 0.00 79 1016.4
20260506093037 11 0 1.6 4.8 0.00 0.36 0.00 79 1016.3
20260506091537 11 348 3.2 8.0 0.00 0.36 0.00 79 1016.4
20260506090036 12 290 1.6 8.0 0.00 0.36 0.00 79 1016.4
20260506084541 12 286 4.8 9.7 0.00 0.36 0.00 80 1016.5
20260506083037 12 284 6.4 11.3 0.00 0.36 0.00 79 1016.8
20260506081540 12 279 4.8 9.7 0.00 0.36 0.00 77 1017.0
20260506073038 12 306 1.6 6.4 0.00 0.36 0.00 75 1017.1
20260506071538 13 254 3.2 11.3 0.00 0.36 0.00 75 1017.1
20260506061537 13 251 9.7 14.5 0.00 0.36 0.36 72 1016.4